This demonstration page uses our WeatherBlox Daily Observations layout. Learn more.

Left ArrowRight Arrow

Hourly Observations for June 27, 2015

Temp ( °F °C ) Dew Point ( °F °C ) Humidity (%) Winds ( mph kmh ) Pressure ( in mb ) Visibility ( mi km ) Precip ( " mm )
12:54 am 00:54 Clear 66 18.9 61 16.1 84 84 N N/A 30.08 1019 8 13 N/A
1:54 am 01:54 Clear 63 17.2 60 15.6 90 90 NNE 5 7 30.07 1018 10 16 N/A
2:33 am 02:33 Clear 64 17.8 60 15.6 87 87 NNW 3 6 30.06 1018 10 16 N/A
2:54 am 02:54 Clear 61 16.1 59 15 93 93 N 5 7 30.07 1018 10 16 N/A
3:33 am 03:33 Clear 61 16.1 59 15 93 93 N N/A 30.09 1019 9 14 N/A
3:43 am 03:43 Clear 60 15.6 58 14.4 93 93 N N/A 30.09 1019 9 14 N/A
3:54 am 03:54 Clear 62 16.7 60 15.6 93 93 N N/A 30.06 1018 7 11 N/A
4:04 am 04:04 Clear 61 16 59 15 94 94 N N/A 30.09 1019 8 13 N/A
4:54 am 04:54 Clear 61 16.1 58 14.4 90 90 N N/A 30.07 1018 9 14 N/A
5:54 am 05:54 Clear 62 16.7 59 15 90 90 N N/A 30.08 1019 9 14 N/A
6:54 am 06:54 Sunny with Mist and Fog 62 16.7 59 15 90 90 N 3 6 30.10 1019 6 10 N/A
7:54 am 07:54 Sunny 66 18.9 61 16.1 84 84 N 6 9 30.10 1019 9 14 N/A
8:54 am 08:54 Sunny 71 21.7 61 16.1 71 71 NNW 3 6 30.11 1020 10 16 N/A
9:54 am 09:54 Sunny 76 24.4 61 16.1 60 60 N N/A 30.10 1019 10 16 N/A
10:54 am 10:54 Sunny 80 26.7 58 14.4 47 47 NW 7 11 30.10 1019 10 16 N/A
11:54 am 11:54 Sunny 83 28.3 56 13.3 40 40 NNE 5 7 30.09 1019 10 16 N/A
12:54 pm 12:54 Sunny 84 28.9 56 13.3 38 38 NW 7 11 30.08 1019 10 16 N/A
1:54 pm 13:54 Sunny 85 29.4 56 13.3 37 37 SW 5 7 30.07 1018 10 16 N/A
2:54 pm 14:54 Mostly Sunny 86 30 56 13.3 36 36 WNW 6 9 30.05 1018 10 16 N/A
3:54 pm 15:54 Sunny 87 30.6 56 13.3 35 35 WNW 6 9 30.03 1017 10 16 N/A
4:54 pm 16:54 Sunny 86 30 57 13.9 37 37 WSW 7 11 30.01 1016 10 16 N/A
5:54 pm 17:54 Mostly Sunny 85 29.4 57 13.9 39 39 N N/A 30.00 1016 10 16 N/A
6:54 pm 18:54 Sunny 84 28.9 58 14.4 41 41 SSW 7 11 29.98 1015 10 16 N/A
7:54 pm 19:54 Sunny 81 27.2 61 16.1 51 51 S 6 9 29.96 1015 10 16 N/A
8:54 pm 20:54 Sunny 78 25.6 61 16.1 56 56 S 7 11 29.96 1014 10 16 N/A
9:54 pm 21:54 Clear 77 25 61 16.1 58 58 SSW 7 11 29.95 1014 10 16 N/A
10:54 pm 22:54 Clear 72 22.2 61 16.1 68 68 SSW 7 11 29.96 1015 10 16 N/A
11:54 pm 23:54 Clear 72 22.2 61 16.1 68 68 S 5 7 29.93 1014 10 16 N/A

Powered by AerisWeather